Meteo Giornale » Osservazioni meteo Francia » Landivisiau
ore: 08:00 - Osservazioni Meteo Landivisiau
Lat. 48° 31' N Lon. 4° 9' W Alt. 106 metri s.l.m.
13 °C
Sereno
Temp. 24 Ore
12 °C
20 °C
Nord
5.5 Km/h
Dew point 12 °C
Umidità 93 %
Visibilità 10 Km
Il sole sorge alle ore 07:34
Il sole tramonta alle ore 20:59
| Data e Ora | Cielo e Fenomeni | T °C | DP °C | Um. % | Pres. hPa | Vis. km | Vento km/h | |
|---|---|---|---|---|---|---|---|---|
| Oggi h: 08:00 | Sereno | 13 | 12 | 93 | 1022 | 10 | N 5.5 | |
| Oggi h: 07:30 | Sereno | 12 | 11 | 93 | 1022 | 10 | S/SE 7.4 | |
| Oggi h: 07:00 | Sereno | 13 | 12 | 93 | 1022 | 10 | N 5.5 | |
| Oggi h: 06:30 | Sereno | 14 | 13 | 93 | 1022 | 10 | S 7.4 | |
| Oggi h: 06:00 | Molto Nuvoloso | 13 | 12 | 93 | 1022 | 10 | S/SO 7.4 | |
| Oggi h: 05:30 | Coperto | 14 | 12 | 87 | 1022 | 10 | S/SO 7.4 | |
| Oggi h: 05:00 | Coperto | 14 | 13 | 93 | 1022 | 10 | N 5.5 | |
| Oggi h: 04:30 | Coperto | 14 | 12 | 87 | 1022 | 10 | N 3.7 | |
| Oggi h: 04:00 | Coperto | 14 | 12 | 87 | 1022 | 10 | N 5.5 | |
| Oggi h: 03:30 | Coperto | 14 | 12 | 87 | 1022 | 10 | N 3.7 | |
| Oggi h: 03:00 | Coperto | 13 | 12 | 93 | 1022 | 10 | N 3.7 | |
| Oggi h: 02:30 | Coperto | 13 | 12 | 93 | 1022 | 10 | N 5.5 | |
| Oggi h: 02:00 | Sereno | 12 | 10 | 87 | 1022 | 10 | S/SE 7.4 | |
| Oggi h: 01:30 | Sereno | 13 | 11 | 87 | 1023 | 10 | S 7.4 | |
| Oggi h: 01:00 | Sereno | 13 | 12 | 93 | 1023 | 10 | S/SO 7.4 | |
| Oggi h: 00:30 | Sereno | 13 | 11 | 87 | 1023 | 10 | SO 7.4 | |
| Oggi h: 00:00 | Sereno | 13 | 11 | 87 | 1023 | 10 | SO 7.4 | |
| Ieri h: 23:30 | Sereno | 13 | 12 | 93 | 1023 | 10 | SO 7.4 | |
| Ieri h: 23:00 | Sereno | 13 | 11 | 87 | 1023 | 10 | O/SO 7.4 | |
| Ieri h: 22:30 | Sereno | 13 | 11 | 87 | 1023 | 10 | N 5.5 | |
| Ieri h: 22:00 | Sereno | 14 | 12 | 87 | 1022 | 10 | O 7.4 | |
| Ieri h: 21:30 | Sereno | 14 | 12 | 87 | 1022 | 10 | O 7.4 | |
| Ieri h: 21:00 | Sereno | 15 | 12 | 82 | 1022 | 10 | O/NO 7.4 | |
| Ieri h: 20:30 | Sereno | 16 | 12 | 77 | 1021 | 10 | O/NO 9.3 | |
| Ieri h: 20:00 | Poco Nuvoloso | 17 | 12 | 72 | 1021 | 10 | O/NO 13 | |
| Ieri h: 19:30 | Poco Nuvoloso | 18 | 12 | 67 | 1021 | 10 | O/NO 14.8 | |
| Ieri h: 19:00 | Nuvoloso | 18 | 12 | 67 | 1021 | 10 | O/NO 14.8 | |
| Ieri h: 18:30 | Nuvoloso | 19 | 13 | 68 | 1021 | 10 | O/NO 18.5 | |
| Ieri h: 18:00 | Nuvoloso | 19 | 13 | 68 | 1021 | 10 | NO 18.5 | |
| Ieri h: 17:30 | Molto Nuvoloso | 19 | 13 | 68 | 1021 | 10 | O/NO 18.5 | |
| Ieri h: 17:00 | Molto Nuvoloso | 19 | 12 | 63 | 1021 | 10 | O/NO 20.3 | |
| Ieri h: 16:30 | Molto Nuvoloso | 20 | 13 | 64 | 1020 | 10 | O/NO 18.5 | |
| Ieri h: 16:00 | Molto Nuvoloso | 20 | 12 | 59 | 1020 | 10 | O/NO 22.2 | |
| Ieri h: 15:30 | Molto Nuvoloso | 19 | 13 | 68 | 1020 | 10 | NO 20.3 | |
| Ieri h: 15:00 | Molto Nuvoloso | 19 | 13 | 68 | 1020 | 10 | O/NO 18.5 | |
| Ieri h: 14:30 | Molto Nuvoloso | 20 | 13 | 64 | 1020 | 10 | O/NO 20.3 | |
| Ieri h: 14:00 | Molto Nuvoloso | 19 | 14 | 72 | 1020 | 10 | O/NO 20.3 | |
| Ieri h: 13:30 | Molto Nuvoloso | 18 | 14 | 77 | 1019 | 10 | O/NO 25.9 | |
| Ieri h: 13:00 | Molto Nuvoloso | 19 | 13 | 68 | 1019 | 10 | O/NO 22.2 | |
| Ieri h: 12:30 | Molto Nuvoloso | 18 | 14 | 77 | 1019 | 10 | O/NO 20.3 | |
| Ieri h: 12:00 | Molto Nuvoloso | 18 | 16 | 88 | 1018 | 10 | O 16.7 | |
| Ieri h: 11:30 | Molto Nuvoloso | 18 | 15 | 82 | 1018 | 10 | O/NO 18.5 | |
| Ieri h: 11:00 | Molto Nuvoloso | 18 | 15 | 82 | 1018 | 10 | O 18.5 | |
| Ieri h: 10:30 | Coperto | 18 | 15 | 82 | 1017 | 10 | O/NO 22.2 | |
| Ieri h: 10:00 | Molto Nuvoloso | 17 | 15 | 88 | 1017 | 10 | O 18.5 | |
| Ieri h: 09:30 | Molto Nuvoloso | 17 | 15 | 88 | 1016 | 10 | O 18.5 | |
| Ieri h: 09:00 | Molto Nuvoloso | 17 | 15 | 88 | 1016 | 10 | O 20.3 | |



